{"data":{"norad_id":67948,"intl_designator":"2026-037S","name":"STARLINK-36873","alt_names":[],"object_type":"PAYLOAD","status":"ACTIVE","operator":null,"country":"US","launch_date":"2026-02-24","launch_site_code":"AFETR","launch_vehicle":null,"mission":null,"orbit_class":"UNKNOWN","rcs_meters":null,"size_class":null,"mass_kg":null,"dimensions":null,"purposes":["comms"],"wikipedia_slug":null,"has_3d_model":false,"image_url":null,"decayed_at":null,"tle_current":{"epoch":"2026-09-19T02:13:06.976704Z","epoch_age_seconds":184834,"freshness":"STALE","line1":"1 67948U 26037S   26262.09244186  .00015094  00000+0  55668-3 0  9995","line2":"2 67948  43.0033 178.0977 0001567 248.8559 111.2125 15.27592289 32927","mean_motion":15.27592289,"eccentricity":0.0001567,"inclination_deg":43.0033,"raan_deg":178.0977,"arg_perigee_deg":248.8559,"mean_anomaly_deg":111.2125,"bstar":0.00055668,"rev_number":3292,"period_min":94.265990367277,"perigee_km":481.93715650431,"apogee_km":484.08744069449,"semimajor_km":6861.1492985994,"source":"CELESTRAK","updated_at":"2026-09-20T09:00:43.710105Z"}}}